Year,Month,Day,Hour,Minute,Value (Times are PST for temperature in C)
2014,05,30,00,00,11.90
2014,05,30,00,01,11.90
2014,05,30,00,02,11.90
2014,05,30,00,03,11.90
2014,05,30,00,04,11.90
2014,05,30,00,05,11.90
2014,05,30,00,06,11.80
2014,05,30,00,07,11.80
2014,05,30,00,08,11.80
2014,05,30,00,09,11.80
2014,05,30,00,10,11.80
2014,05,30,00,11,11.80
2014,05,30,00,12,11.80
2014,05,30,00,13,11.80
2014,05,30,00,14,11.80
2014,05,30,00,15,11.70
2014,05,30,00,16,11.70
2014,05,30,00,17,11.70
2014,05,30,00,18,11.70
2014,05,30,00,19,11.60
2014,05,30,00,20,11.60
2014,05,30,00,21,11.60
2014,05,30,00,22,11.60
2014,05,30,00,23,11.60
2014,05,30,00,24,11.60
2014,05,30,00,25,11.50
2014,05,30,00,26,11.40
2014,05,30,00,27,11.40
2014,05,30,00,28,11.40
2014,05,30,00,29,11.40
2014,05,30,00,30,11.30
2014,05,30,00,31,11.30
2014,05,30,00,32,11.30
2014,05,30,00,33,11.20
2014,05,30,00,34,11.20
2014,05,30,00,35,11.10
2014,05,30,00,36,11.10
2014,05,30,00,37,11.10
2014,05,30,00,38,11.10
2014,05,30,00,39,11.00
2014,05,30,00,40,10.90
2014,05,30,00,41,10.90
2014,05,30,00,42,10.90
2014,05,30,00,43,10.90
2014,05,30,00,44,10.90
2014,05,30,00,45,10.80
2014,05,30,00,46,10.80
2014,05,30,00,47,10.70
2014,05,30,00,48,10.70
2014,05,30,00,49,10.60
2014,05,30,00,50,10.60
2014,05,30,00,51,10.60
2014,05,30,00,52,10.60
2014,05,30,00,53,10.60
2014,05,30,00,54,10.50
2014,05,30,00,55,10.40
2014,05,30,00,56,10.40
2014,05,30,00,57,10.40
2014,05,30,00,58,10.30
2014,05,30,00,59,10.30
2014,05,30,01,00,10.20
2014,05,30,01,01,10.20
2014,05,30,01,02,10.20
2014,05,30,01,03,10.10
2014,05,30,01,04,10.10
2014,05,30,01,05,10.10
2014,05,30,01,06,10.00
2014,05,30,01,07,9.90
2014,05,30,01,08,9.90
2014,05,30,01,09,9.90
2014,05,30,01,10,9.90
2014,05,30,01,11,9.80
2014,05,30,01,12,9.80
2014,05,30,01,13,9.80
2014,05,30,01,14,9.70
2014,05,30,01,15,9.70
2014,05,30,01,16,9.70
2014,05,30,01,17,9.70
2014,05,30,01,18,9.60
2014,05,30,01,19,9.60
2014,05,30,01,20,9.60
2014,05,30,01,21,9.50
2014,05,30,01,22,9.50
2014,05,30,01,23,9.50
2014,05,30,01,24,9.40
2014,05,30,01,25,9.40
2014,05,30,01,26,9.40
2014,05,30,01,27,9.40
2014,05,30,01,28,9.30
2014,05,30,01,29,9.30
2014,05,30,01,30,9.30
2014,05,30,01,31,9.20
2014,05,30,01,32,9.20
2014,05,30,01,33,9.20
2014,05,30,01,34,9.20
2014,05,30,01,35,9.20
2014,05,30,01,36,9.20
2014,05,30,01,37,9.20
2014,05,30,01,38,9.20
2014,05,30,01,39,9.10
2014,05,30,01,40,9.10
2014,05,30,01,41,9.10
2014,05,30,01,42,9.10
2014,05,30,01,43,9.10
2014,05,30,01,44,9.10
2014,05,30,01,45,9.00
2014,05,30,01,46,9.00
2014,05,30,01,47,9.00
2014,05,30,01,48,9.00
2014,05,30,01,49,9.00
2014,05,30,01,50,8.90
2014,05,30,01,51,8.90
2014,05,30,01,52,8.90
2014,05,30,01,53,8.80
2014,05,30,01,54,8.80
2014,05,30,01,55,8.80
2014,05,30,01,56,8.70
2014,05,30,01,57,8.70
2014,05,30,01,58,8.70
2014,05,30,01,59,8.70
2014,05,30,02,00,8.70
2014,05,30,02,01,8.70
2014,05,30,02,02,8.70
2014,05,30,02,03,8.70
2014,05,30,02,04,8.60
2014,05,30,02,05,8.60
2014,05,30,02,06,8.60
2014,05,30,02,07,8.50
2014,05,30,02,08,8.50
2014,05,30,02,09,8.50
2014,05,30,02,10,8.40
2014,05,30,02,11,8.40
2014,05,30,02,12,8.30
2014,05,30,02,13,8.30
2014,05,30,02,14,8.30
2014,05,30,02,15,8.30
2014,05,30,02,16,8.20
2014,05,30,02,17,8.20
2014,05,30,02,18,8.20
2014,05,30,02,19,8.20
2014,05,30,02,20,8.20
2014,05,30,02,21,8.20
2014,05,30,02,22,8.20
2014,05,30,02,23,8.20
2014,05,30,02,24,8.20
2014,05,30,02,25,8.20
2014,05,30,02,26,8.20
2014,05,30,02,27,8.20
2014,05,30,02,28,8.20
2014,05,30,02,29,8.20
2014,05,30,02,30,8.20
2014,05,30,02,31,8.20
2014,05,30,02,32,8.20
2014,05,30,02,33,8.20
2014,05,30,02,34,8.10
2014,05,30,02,35,8.10
2014,05,30,02,36,8.10
2014,05,30,02,37,8.10
2014,05,30,02,38,8.10
2014,05,30,02,39,8.10
2014,05,30,02,40,8.10
2014,05,30,02,41,8.10
2014,05,30,02,42,8.10
2014,05,30,02,43,8.10
2014,05,30,02,44,8.10
2014,05,30,02,45,8.10
2014,05,30,02,46,8.10
2014,05,30,02,47,8.10
2014,05,30,02,48,8.10
2014,05,30,02,49,8.10
2014,05,30,02,50,8.10
2014,05,30,02,51,8.10
2014,05,30,02,52,8.00
2014,05,30,02,53,8.00
2014,05,30,02,54,8.00
2014,05,30,02,55,8.00
2014,05,30,02,56,8.00
2014,05,30,02,57,7.90
2014,05,30,02,58,7.90
2014,05,30,02,59,7.90
2014,05,30,03,00,7.90
2014,05,30,03,01,7.90
2014,05,30,03,02,7.90
2014,05,30,03,03,7.90
2014,05,30,03,04,7.80
2014,05,30,03,05,7.80
2014,05,30,03,06,7.80
2014,05,30,03,07,7.80
2014,05,30,03,08,7.80
2014,05,30,03,09,7.80
2014,05,30,03,10,7.80
2014,05,30,03,11,7.80
2014,05,30,03,12,7.80
2014,05,30,03,13,7.80
2014,05,30,03,14,7.80
2014,05,30,03,15,7.80
2014,05,30,03,16,7.80
2014,05,30,03,17,7.80
2014,05,30,03,18,7.80
2014,05,30,03,19,7.80
2014,05,30,03,20,7.80
2014,05,30,03,21,7.80
2014,05,30,03,22,7.70
2014,05,30,03,23,7.70
2014,05,30,03,24,7.70
2014,05,30,03,25,7.70
2014,05,30,03,26,7.70
2014,05,30,03,27,7.70
2014,05,30,03,28,7.70
2014,05,30,03,29,7.70
2014,05,30,03,30,7.70
2014,05,30,03,31,7.70
2014,05,30,03,32,7.70
2014,05,30,03,33,7.60
2014,05,30,03,34,7.60
2014,05,30,03,35,7.60
2014,05,30,03,36,7.60
2014,05,30,03,37,7.50
2014,05,30,03,38,7.50
2014,05,30,03,39,7.50
2014,05,30,03,40,7.50
2014,05,30,03,41,7.40
2014,05,30,03,42,7.40
2014,05,30,03,43,7.40
2014,05,30,03,44,7.40
2014,05,30,03,45,7.30
2014,05,30,03,46,7.30
2014,05,30,03,47,7.30
2014,05,30,03,48,7.30
2014,05,30,03,49,7.30
2014,05,30,03,50,7.30
2014,05,30,03,51,7.30
2014,05,30,03,52,7.30
2014,05,30,03,53,7.30
2014,05,30,03,54,7.30
2014,05,30,03,55,7.30
2014,05,30,03,56,7.30
2014,05,30,03,57,7.30
2014,05,30,03,58,7.30
2014,05,30,03,59,7.30
2014,05,30,04,00,7.30
2014,05,30,04,01,7.30
2014,05,30,04,02,7.20
2014,05,30,04,03,7.20
2014,05,30,04,04,7.20
2014,05,30,04,05,7.20
2014,05,30,04,06,7.20
2014,05,30,04,07,7.10
2014,05,30,04,08,7.10
2014,05,30,04,09,7.10
2014,05,30,04,10,7.10
2014,05,30,04,11,7.10
2014,05,30,04,12,7.10
2014,05,30,04,13,7.10
2014,05,30,04,14,7.00
2014,05,30,04,15,7.00
2014,05,30,04,16,7.00
2014,05,30,04,17,7.00
2014,05,30,04,18,7.00
2014,05,30,04,19,7.00
2014,05,30,04,20,7.00
2014,05,30,04,21,6.90
2014,05,30,04,22,6.90
2014,05,30,04,23,6.90
2014,05,30,04,24,6.90
2014,05,30,04,25,6.90
2014,05,30,04,26,6.80
2014,05,30,04,27,6.80
2014,05,30,04,28,6.80
2014,05,30,04,29,6.80
2014,05,30,04,30,6.80
2014,05,30,04,31,6.80
2014,05,30,04,32,6.80
2014,05,30,04,33,6.80
2014,05,30,04,34,6.80
2014,05,30,04,35,6.80
2014,05,30,04,36,6.80
2014,05,30,04,37,6.80
2014,05,30,04,38,6.80
2014,05,30,04,39,6.80
2014,05,30,04,40,6.80
2014,05,30,04,41,6.80
2014,05,30,04,42,6.80
2014,05,30,04,43,6.70
2014,05,30,04,44,6.70
2014,05,30,04,45,6.70
2014,05,30,04,46,6.70
2014,05,30,04,47,6.70
2014,05,30,04,48,6.70
2014,05,30,04,49,6.70
2014,05,30,04,50,6.70
2014,05,30,04,51,6.70
2014,05,30,04,52,6.70
2014,05,30,04,53,6.60
2014,05,30,04,54,6.60
2014,05,30,04,55,6.60
2014,05,30,04,56,6.60
2014,05,30,04,57,6.60
2014,05,30,04,58,6.60
2014,05,30,04,59,6.60
2014,05,30,05,00,6.60
2014,05,30,05,01,6.60
2014,05,30,05,02,6.60
2014,05,30,05,03,6.60
2014,05,30,05,04,6.60
2014,05,30,05,05,6.50
2014,05,30,05,06,6.40
2014,05,30,05,07,6.40
2014,05,30,05,08,6.40
2014,05,30,05,09,6.40
2014,05,30,05,10,6.40
2014,05,30,05,11,6.40
2014,05,30,05,12,6.40
2014,05,30,05,13,6.40
2014,05,30,05,14,6.40
2014,05,30,05,15,6.40
2014,05,30,05,16,6.40
2014,05,30,05,17,6.40
2014,05,30,05,18,6.40
2014,05,30,05,19,6.40
2014,05,30,05,20,6.40
2014,05,30,05,21,6.40
2014,05,30,05,22,6.40
2014,05,30,05,23,6.40
2014,05,30,05,24,6.40
2014,05,30,05,25,6.40
2014,05,30,05,26,6.40
2014,05,30,05,27,6.40
2014,05,30,05,28,6.40
2014,05,30,05,29,6.40
2014,05,30,05,30,6.40
2014,05,30,05,31,6.40
2014,05,30,05,32,6.40
2014,05,30,05,33,6.40
2014,05,30,05,34,6.40
2014,05,30,05,35,6.40
2014,05,30,05,36,6.40
2014,05,30,05,37,6.40
2014,05,30,05,38,6.40
2014,05,30,05,39,6.40
2014,05,30,05,40,6.30
2014,05,30,05,41,6.30
2014,05,30,05,42,6.30
2014,05,30,05,43,6.30
2014,05,30,05,44,6.30
2014,05,30,05,45,6.30
2014,05,30,05,46,6.30
2014,05,30,05,47,6.30
2014,05,30,05,48,6.30
2014,05,30,05,49,6.30
2014,05,30,05,50,6.30
2014,05,30,05,51,6.30
2014,05,30,05,52,6.30
2014,05,30,05,53,6.30
2014,05,30,05,54,6.30
2014,05,30,05,55,6.30
2014,05,30,05,56,6.30
2014,05,30,05,57,6.30
2014,05,30,05,58,6.30
2014,05,30,05,59,6.30
2014,05,30,06,00,6.30
2014,05,30,06,01,6.30
2014,05,30,06,02,6.30
2014,05,30,06,03,6.30
2014,05,30,06,04,6.30
2014,05,30,06,05,6.30
2014,05,30,06,06,6.30
2014,05,30,06,07,6.40
2014,05,30,06,08,6.40
2014,05,30,06,09,6.40
2014,05,30,06,10,6.40
2014,05,30,06,11,6.40
2014,05,30,06,12,6.40
2014,05,30,06,13,6.50
2014,05,30,06,14,6.60
2014,05,30,06,15,6.60
2014,05,30,06,16,6.60
2014,05,30,06,17,6.60
2014,05,30,06,18,6.60
2014,05,30,06,19,6.60
2014,05,30,06,20,6.70
2014,05,30,06,21,6.70
2014,05,30,06,22,6.80
2014,05,30,06,23,6.80
2014,05,30,06,24,6.80
2014,05,30,06,25,6.80
2014,05,30,06,26,6.80
2014,05,30,06,27,6.90
2014,05,30,06,28,6.90
2014,05,30,06,29,7.00
2014,05,30,06,30,7.00
2014,05,30,06,31,7.10
2014,05,30,06,32,7.10
2014,05,30,06,33,7.20
2014,05,30,06,34,7.20
2014,05,30,06,35,7.30
2014,05,30,06,36,7.30
2014,05,30,06,37,7.30
2014,05,30,06,38,7.40
2014,05,30,06,39,7.40
2014,05,30,06,40,7.40
2014,05,30,06,41,7.50
2014,05,30,06,42,7.50
2014,05,30,06,43,7.50
2014,05,30,06,44,7.60
2014,05,30,06,45,7.60
2014,05,30,06,46,7.60
2014,05,30,06,47,7.70
2014,05,30,06,48,7.70
2014,05,30,06,49,7.80
2014,05,30,06,50,7.80
2014,05,30,06,51,7.80
2014,05,30,06,52,7.80
2014,05,30,06,53,7.90
2014,05,30,06,54,7.90
2014,05,30,06,55,7.90
2014,05,30,06,56,8.00
2014,05,30,06,57,8.00
2014,05,30,06,58,8.10
2014,05,30,06,59,8.20
2014,05,30,07,00,8.20
2014,05,30,07,01,8.30
2014,05,30,07,02,8.40
2014,05,30,07,03,8.40
2014,05,30,07,04,8.50
2014,05,30,07,05,8.60
2014,05,30,07,06,8.60
2014,05,30,07,07,8.70
2014,05,30,07,08,8.70
2014,05,30,07,09,8.80
2014,05,30,07,10,8.90
2014,05,30,07,11,9.00
2014,05,30,07,12,9.00
2014,05,30,07,13,9.10
2014,05,30,07,14,9.10
2014,05,30,07,15,9.20
2014,05,30,07,16,9.20
2014,05,30,07,17,9.20
2014,05,30,07,18,9.30
2014,05,30,07,19,9.30
2014,05,30,07,20,9.40
2014,05,30,07,21,9.40
2014,05,30,07,22,9.50
2014,05,30,07,23,9.50
2014,05,30,07,24,9.60
2014,05,30,07,25,9.60
2014,05,30,07,26,9.70
2014,05,30,07,27,9.70
2014,05,30,07,28,9.70
2014,05,30,07,29,9.80
2014,05,30,07,30,9.80
2014,05,30,07,31,9.80
2014,05,30,07,32,9.90
2014,05,30,07,33,9.90
2014,05,30,07,34,9.90
2014,05,30,07,35,9.90
2014,05,30,07,36,10.10
2014,05,30,07,37,10.10
2014,05,30,07,38,10.10
2014,05,30,07,39,10.10
2014,05,30,07,40,10.20
2014,05,30,07,41,10.20
2014,05,30,07,42,10.20
2014,05,30,07,43,10.30
2014,05,30,07,44,10.30
2014,05,30,07,45,10.40
2014,05,30,07,46,10.40
2014,05,30,07,47,10.40
2014,05,30,07,48,10.40
2014,05,30,07,49,10.50
2014,05,30,07,50,10.60
2014,05,30,07,51,10.60
2014,05,30,07,52,10.60
2014,05,30,07,53,10.60
2014,05,30,07,54,10.70
2014,05,30,07,55,10.70
2014,05,30,07,56,10.70
2014,05,30,07,57,10.80
2014,05,30,07,58,10.80
2014,05,30,07,59,10.90
2014,05,30,08,00,10.90
2014,05,30,08,01,10.90
2014,05,30,08,02,10.90
2014,05,30,08,03,10.90
2014,05,30,08,04,10.90
2014,05,30,08,05,10.90
2014,05,30,08,06,10.90
2014,05,30,08,07,10.90
2014,05,30,08,08,10.90
2014,05,30,08,09,10.90
2014,05,30,08,10,10.90
2014,05,30,08,11,10.90
2014,05,30,08,12,10.90
2014,05,30,08,13,10.90
2014,05,30,08,14,10.90
2014,05,30,08,15,10.90
2014,05,30,08,16,10.90
2014,05,30,08,17,10.90
2014,05,30,08,18,10.90
2014,05,30,08,19,11.00
2014,05,30,08,20,11.10
2014,05,30,08,21,11.10
2014,05,30,08,22,11.10
2014,05,30,08,23,11.10
2014,05,30,08,24,11.20
2014,05,30,08,25,11.20
2014,05,30,08,26,11.30
2014,05,30,08,27,11.30
2014,05,30,08,28,11.40
2014,05,30,08,29,11.40
2014,05,30,08,30,11.50
2014,05,30,08,31,11.60
2014,05,30,08,32,11.60
2014,05,30,08,33,11.70
2014,05,30,08,34,11.80
2014,05,30,08,35,11.80
2014,05,30,08,36,11.80
2014,05,30,08,37,11.90
2014,05,30,08,38,11.90
2014,05,30,08,39,11.90
2014,05,30,08,40,11.90
2014,05,30,08,41,12.00
2014,05,30,08,42,12.00
2014,05,30,08,43,12.10
2014,05,30,08,44,12.10
2014,05,30,08,45,12.20
2014,05,30,08,46,12.20
2014,05,30,08,47,12.30
2014,05,30,08,48,12.30
2014,05,30,08,49,12.30
2014,05,30,08,50,12.40
2014,05,30,08,51,12.40
2014,05,30,08,52,12.40
2014,05,30,08,53,12.40
2014,05,30,08,54,12.40
2014,05,30,08,55,12.50
2014,05,30,08,56,12.50
2014,05,30,08,57,12.60
2014,05,30,08,58,12.50
2014,05,30,08,59,12.60
2014,05,30,09,00,12.60
2014,05,30,09,01,12.60
2014,05,30,09,02,12.70
2014,05,30,09,03,12.70
2014,05,30,09,04,12.80
2014,05,30,09,05,12.80
2014,05,30,09,06,12.80
2014,05,30,09,07,12.80
2014,05,30,09,08,12.80
2014,05,30,09,09,12.90
2014,05,30,09,10,13.00
2014,05,30,09,11,13.00
2014,05,30,09,12,13.10
2014,05,30,09,13,13.10
2014,05,30,09,14,13.10
2014,05,30,09,15,13.10
2014,05,30,09,16,13.10
2014,05,30,09,17,13.10
2014,05,30,09,18,13.10
2014,05,30,09,19,13.10
2014,05,30,09,20,13.10
2014,05,30,09,21,13.20
2014,05,30,09,22,13.20
2014,05,30,09,23,13.20
2014,05,30,09,24,13.20
2014,05,30,09,25,13.20
2014,05,30,09,26,13.20
2014,05,30,09,27,13.20
2014,05,30,09,28,13.20
2014,05,30,09,29,13.20
2014,05,30,09,30,13.30
2014,05,30,09,31,13.30
2014,05,30,09,32,13.30
2014,05,30,09,33,13.30
2014,05,30,09,34,13.40
2014,05,30,09,35,13.50
2014,05,30,09,36,13.60
2014,05,30,09,37,13.60
2014,05,30,09,38,13.70
2014,05,30,09,39,13.70
2014,05,30,09,40,13.70
2014,05,30,09,41,13.70
2014,05,30,09,42,13.70
2014,05,30,09,43,13.70
2014,05,30,09,44,13.70
2014,05,30,09,45,13.70
2014,05,30,09,46,13.70
2014,05,30,09,47,13.70
2014,05,30,09,48,13.70
2014,05,30,09,49,13.70
2014,05,30,09,50,13.80
2014,05,30,09,51,13.80
2014,05,30,09,52,13.80
2014,05,30,09,53,13.90
2014,05,30,09,54,13.90
2014,05,30,09,55,13.90
2014,05,30,09,56,13.90
2014,05,30,09,57,13.90
2014,05,30,09,58,13.80
2014,05,30,09,59,13.80
2014,05,30,10,00,13.70
2014,05,30,10,01,13.70
2014,05,30,10,02,13.70
2014,05,30,10,03,13.80
2014,05,30,10,04,13.80
2014,05,30,10,05,13.90
2014,05,30,10,06,13.90
2014,05,30,10,07,14.00
2014,05,30,10,08,14.10
2014,05,30,10,09,14.20
2014,05,30,10,10,14.20
2014,05,30,10,11,14.20
2014,05,30,10,12,14.30
2014,05,30,10,13,14.30
2014,05,30,10,14,14.30
2014,05,30,10,15,14.40
2014,05,30,10,16,14.50
2014,05,30,10,17,14.50
2014,05,30,10,18,14.50
2014,05,30,10,19,14.60
2014,05,30,10,20,14.60
2014,05,30,10,21,14.60
2014,05,30,10,22,14.70
2014,05,30,10,23,14.80
2014,05,30,10,24,14.90
2014,05,30,10,25,15.00
2014,05,30,10,26,15.10
2014,05,30,10,27,15.10
2014,05,30,10,28,15.20
2014,05,30,10,29,15.30
2014,05,30,10,30,15.30
2014,05,30,10,31,15.40
2014,05,30,10,32,15.40
2014,05,30,10,33,15.40
2014,05,30,10,34,15.40
2014,05,30,10,35,15.40
2014,05,30,10,36,15.30
2014,05,30,10,37,15.30
2014,05,30,10,38,15.40
2014,05,30,10,39,15.40
2014,05,30,10,40,15.50
2014,05,30,10,41,15.60
2014,05,30,10,42,15.70
2014,05,30,10,43,15.80
2014,05,30,10,44,15.80
2014,05,30,10,45,15.80
2014,05,30,10,46,15.80
2014,05,30,10,47,15.90
2014,05,30,10,48,15.90
2014,05,30,10,49,15.90
2014,05,30,10,50,15.90
2014,05,30,10,51,15.90
2014,05,30,10,52,15.80
2014,05,30,10,53,15.80
2014,05,30,10,54,15.80
2014,05,30,10,55,15.80
2014,05,30,10,56,15.80
2014,05,30,10,57,15.80
2014,05,30,10,58,15.80
2014,05,30,10,59,15.80
2014,05,30,11,00,15.90
2014,05,30,11,01,16.00
2014,05,30,11,02,16.10
2014,05,30,11,03,16.20
2014,05,30,11,04,16.30
2014,05,30,11,05,16.40
2014,05,30,11,06,16.40
2014,05,30,11,07,16.50
2014,05,30,11,08,16.70
2014,05,30,11,09,16.70
2014,05,30,11,10,16.80
2014,05,30,11,11,16.70
2014,05,30,11,12,16.70
2014,05,30,11,13,16.70
2014,05,30,11,14,16.60
2014,05,30,11,15,16.50
2014,05,30,11,16,16.40
2014,05,30,11,17,16.40
2014,05,30,11,18,16.40
2014,05,30,11,19,16.40
2014,05,30,11,20,16.50
2014,05,30,11,21,16.60
2014,05,30,11,22,16.50
2014,05,30,11,23,16.40
2014,05,30,11,24,16.40
2014,05,30,11,25,16.40
2014,05,30,11,26,16.50
2014,05,30,11,27,16.60
2014,05,30,11,28,16.70
2014,05,30,11,29,16.70
2014,05,30,11,30,16.70
2014,05,30,11,31,16.70
2014,05,30,11,32,16.70
2014,05,30,11,33,16.80
2014,05,30,11,34,16.80
2014,05,30,11,35,16.90
2014,05,30,11,36,17.00
2014,05,30,11,37,17.00
2014,05,30,11,38,17.00
2014,05,30,11,39,17.10
2014,05,30,11,40,17.10
2014,05,30,11,41,17.20
2014,05,30,11,42,17.20
2014,05,30,11,43,17.20
2014,05,30,11,44,17.30
2014,05,30,11,45,17.30
2014,05,30,11,46,17.20
2014,05,30,11,47,17.10
2014,05,30,11,48,17.10
2014,05,30,11,49,17.10
2014,05,30,11,50,17.10
2014,05,30,11,51,17.20
2014,05,30,11,52,17.30
2014,05,30,11,53,17.30
2014,05,30,11,54,17.40
2014,05,30,11,55,17.50
2014,05,30,11,56,17.50
2014,05,30,11,57,17.50
2014,05,30,11,58,17.50
2014,05,30,11,59,17.50
2014,05,30,12,00,17.40
2014,05,30,12,01,17.40
2014,05,30,12,02,17.40
2014,05,30,12,03,17.40
2014,05,30,12,04,17.40
2014,05,30,12,05,17.50
2014,05,30,12,06,17.50
2014,05,30,12,07,17.60
2014,05,30,12,08,17.70
2014,05,30,12,09,17.60
2014,05,30,12,10,17.60
2014,05,30,12,11,17.70
2014,05,30,12,12,17.70
2014,05,30,12,13,17.80
2014,05,30,12,14,17.70
2014,05,30,12,15,17.80
2014,05,30,12,16,17.80
2014,05,30,12,17,17.80
2014,05,30,12,18,17.90
2014,05,30,12,19,17.90
2014,05,30,12,20,17.80
2014,05,30,12,21,17.90
2014,05,30,12,22,17.90
2014,05,30,12,23,17.90
2014,05,30,12,24,17.90
2014,05,30,12,25,17.90
2014,05,30,12,26,17.90
2014,05,30,12,27,17.90
2014,05,30,12,28,17.90
2014,05,30,12,29,17.90
2014,05,30,12,30,17.90
2014,05,30,12,31,18.00
2014,05,30,12,32,18.10
2014,05,30,12,33,18.10
2014,05,30,12,34,18.10
2014,05,30,12,35,18.10
2014,05,30,12,36,18.20
2014,05,30,12,37,18.20
2014,05,30,12,38,18.20
2014,05,30,12,39,18.20
2014,05,30,12,40,18.20
2014,05,30,12,41,18.10
2014,05,30,12,42,18.10
2014,05,30,12,43,18.20
2014,05,30,12,44,18.20
2014,05,30,12,45,18.20
2014,05,30,12,46,18.20
2014,05,30,12,47,18.20
2014,05,30,12,48,18.10
2014,05,30,12,49,18.10
2014,05,30,12,50,18.00
2014,05,30,12,51,17.90
2014,05,30,12,52,17.90
2014,05,30,12,53,17.90
2014,05,30,12,54,17.90
2014,05,30,12,55,17.90
2014,05,30,12,56,17.90
2014,05,30,12,57,18.00
2014,05,30,12,58,18.10
2014,05,30,12,59,18.20
2014,05,30,13,00,18.30
2014,05,30,13,01,18.20
2014,05,30,13,02,18.20
2014,05,30,13,03,18.20
2014,05,30,13,04,18.20
2014,05,30,13,05,18.10
2014,05,30,13,06,18.10
2014,05,30,13,07,18.00
2014,05,30,13,08,17.90
2014,05,30,13,09,17.90
2014,05,30,13,10,17.90
2014,05,30,13,11,17.90
2014,05,30,13,12,17.90
2014,05,30,13,13,17.90
2014,05,30,13,14,17.90
2014,05,30,13,15,17.90
2014,05,30,13,16,17.90
2014,05,30,13,17,17.90
2014,05,30,13,18,17.90
2014,05,30,13,19,17.90
2014,05,30,13,20,17.90
2014,05,30,13,21,18.00
2014,05,30,13,22,18.10
2014,05,30,13,23,18.20
2014,05,30,13,24,18.30
2014,05,30,13,25,18.40
2014,05,30,13,26,18.50
2014,05,30,13,27,18.60
2014,05,30,13,28,18.70
2014,05,30,13,29,18.70
2014,05,30,13,30,18.70
2014,05,30,13,31,18.80
2014,05,30,13,32,18.80
2014,05,30,13,33,18.90
2014,05,30,13,34,18.90
2014,05,30,13,35,19.00
2014,05,30,13,36,19.00
2014,05,30,13,37,19.00
2014,05,30,13,38,19.00
2014,05,30,13,39,19.10
2014,05,30,13,40,19.00
2014,05,30,13,41,19.00
2014,05,30,13,42,19.10
2014,05,30,13,43,19.10
2014,05,30,13,44,19.20
2014,05,30,13,45,19.10
2014,05,30,13,46,19.10
2014,05,30,13,47,19.20
2014,05,30,13,48,19.20
2014,05,30,13,49,19.20
2014,05,30,13,50,19.10
2014,05,30,13,51,19.00
2014,05,30,13,52,18.90
2014,05,30,13,53,18.80
2014,05,30,13,54,18.80
2014,05,30,13,55,18.80
2014,05,30,13,56,18.70
2014,05,30,13,57,18.60
2014,05,30,13,58,18.60
2014,05,30,13,59,18.60
2014,05,30,14,00,18.60
2014,05,30,14,01,18.60
2014,05,30,14,02,18.70
2014,05,30,14,03,18.70
2014,05,30,14,04,18.60
2014,05,30,14,05,18.50
2014,05,30,14,06,18.40
2014,05,30,14,07,18.30
2014,05,30,14,08,18.40
2014,05,30,14,09,18.40
2014,05,30,14,10,18.50
2014,05,30,14,11,18.60
2014,05,30,14,12,18.60
2014,05,30,14,13,18.70
2014,05,30,14,14,18.90
2014,05,30,14,15,19.00
2014,05,30,14,16,19.10
2014,05,30,14,17,19.20
2014,05,30,14,18,19.30
2014,05,30,14,19,19.30
2014,05,30,14,20,19.30
2014,05,30,14,21,19.30
2014,05,30,14,22,19.20
2014,05,30,14,23,19.10
2014,05,30,14,24,19.10
2014,05,30,14,25,19.10
2014,05,30,14,26,19.10
2014,05,30,14,27,19.10
2014,05,30,14,28,19.00
2014,05,30,14,29,19.00
2014,05,30,14,30,19.00
2014,05,30,14,31,19.00
2014,05,30,14,32,19.10
2014,05,30,14,33,19.10
2014,05,30,14,34,19.10
2014,05,30,14,35,19.20
2014,05,30,14,36,19.20
2014,05,30,14,37,19.30
2014,05,30,14,38,19.30
2014,05,30,14,39,19.40
2014,05,30,14,40,19.50
2014,05,30,14,41,19.60
2014,05,30,14,42,19.70
2014,05,30,14,43,19.70
2014,05,30,14,44,19.70
2014,05,30,14,45,19.60
2014,05,30,14,46,19.60
2014,05,30,14,47,19.60
2014,05,30,14,48,19.60
2014,05,30,14,49,19.60
2014,05,30,14,50,19.60
2014,05,30,14,51,19.50
2014,05,30,14,52,19.40
2014,05,30,14,53,19.30
2014,05,30,14,54,19.10
2014,05,30,14,55,19.00
2014,05,30,14,56,18.90
2014,05,30,14,57,18.80
2014,05,30,14,58,18.70
2014,05,30,14,59,18.60
2014,05,30,15,00,18.50
2014,05,30,15,01,18.40
2014,05,30,15,02,18.40
2014,05,30,15,03,18.40
2014,05,30,15,04,18.40
2014,05,30,15,05,18.40
2014,05,30,15,06,18.50
2014,05,30,15,07,18.50
2014,05,30,15,08,18.50
2014,05,30,15,09,18.50
2014,05,30,15,10,18.50
2014,05,30,15,11,18.50
2014,05,30,15,12,18.40
2014,05,30,15,13,18.40
2014,05,30,15,14,18.40
2014,05,30,15,15,18.50
2014,05,30,15,16,18.50
2014,05,30,15,17,18.50
2014,05,30,15,18,18.50
2014,05,30,15,19,18.60
2014,05,30,15,20,18.60
2014,05,30,15,21,18.70
2014,05,30,15,22,18.70
2014,05,30,15,23,18.80
2014,05,30,15,24,18.80
2014,05,30,15,25,18.80
2014,05,30,15,26,18.80
2014,05,30,15,27,18.80
2014,05,30,15,28,18.80
2014,05,30,15,29,18.80
2014,05,30,15,30,18.90
2014,05,30,15,31,18.90
2014,05,30,15,32,18.90
2014,05,30,15,33,18.70
2014,05,30,15,34,18.70
2014,05,30,15,35,18.60
2014,05,30,15,36,18.60
2014,05,30,15,37,18.60
2014,05,30,15,38,18.70
2014,05,30,15,39,18.70
2014,05,30,15,40,18.80
2014,05,30,15,41,18.80
2014,05,30,15,42,18.90
2014,05,30,15,43,19.00
2014,05,30,15,44,19.10
2014,05,30,15,45,19.10
2014,05,30,15,46,19.10
2014,05,30,15,47,19.10
2014,05,30,15,48,19.10
2014,05,30,15,49,19.00
2014,05,30,15,50,18.90
2014,05,30,15,51,18.90
2014,05,30,15,52,18.90
2014,05,30,15,53,18.80
2014,05,30,15,54,18.70
2014,05,30,15,55,18.70
2014,05,30,15,56,18.70
2014,05,30,15,57,18.70
2014,05,30,15,58,18.60
2014,05,30,15,59,18.60
2014,05,30,16,00,18.70
2014,05,30,16,01,18.70
2014,05,30,16,02,18.70
2014,05,30,16,03,18.60
2014,05,30,16,04,18.60
2014,05,30,16,05,18.50
2014,05,30,16,06,18.50
2014,05,30,16,07,18.50
2014,05,30,16,08,18.50
2014,05,30,16,09,18.50
2014,05,30,16,10,18.60
2014,05,30,16,11,18.60
2014,05,30,16,12,18.70
2014,05,30,16,13,18.80
2014,05,30,16,14,18.90
2014,05,30,16,15,19.10
2014,05,30,16,16,19.20
2014,05,30,16,17,19.30
2014,05,30,16,18,19.40
2014,05,30,16,19,19.40
2014,05,30,16,20,19.50
2014,05,30,16,21,19.60
2014,05,30,16,22,19.60
2014,05,30,16,23,19.60
2014,05,30,16,24,19.70
2014,05,30,16,25,19.60
2014,05,30,16,26,19.60
2014,05,30,16,27,19.60
2014,05,30,16,28,19.70
2014,05,30,16,29,19.70
2014,05,30,16,30,19.80
2014,05,30,16,31,19.80
2014,05,30,16,32,19.70
2014,05,30,16,33,19.70
2014,05,30,16,34,19.60
2014,05,30,16,35,19.50
2014,05,30,16,36,19.40
2014,05,30,16,37,19.40
2014,05,30,16,38,19.30
2014,05,30,16,39,19.30
2014,05,30,16,40,19.30
2014,05,30,16,41,19.30
2014,05,30,16,42,19.30
2014,05,30,16,43,19.30
2014,05,30,16,44,19.30
2014,05,30,16,45,19.30
2014,05,30,16,46,19.30
2014,05,30,16,47,19.30
2014,05,30,16,48,19.30
2014,05,30,16,49,19.30
2014,05,30,16,50,19.30
2014,05,30,16,51,19.30
2014,05,30,16,52,19.30
2014,05,30,16,53,19.30
2014,05,30,16,54,19.30
2014,05,30,16,55,19.20
2014,05,30,16,56,19.20
2014,05,30,16,57,19.20
2014,05,30,16,58,19.10
2014,05,30,16,59,19.10
2014,05,30,17,00,19.10
2014,05,30,17,01,19.10
2014,05,30,17,02,19.20
2014,05,30,17,03,19.30
2014,05,30,17,04,19.40
2014,05,30,17,05,19.50
2014,05,30,17,06,19.60
2014,05,30,17,07,19.70
2014,05,30,17,08,19.80
2014,05,30,17,09,19.90
2014,05,30,17,10,19.90
2014,05,30,17,11,19.90
2014,05,30,17,12,20.10
2014,05,30,17,13,20.10
2014,05,30,17,14,20.20
2014,05,30,17,15,20.20
2014,05,30,17,16,20.20
2014,05,30,17,17,20.20
2014,05,30,17,18,20.30
2014,05,30,17,19,20.40
2014,05,30,17,20,20.40
2014,05,30,17,21,20.50
2014,05,30,17,22,20.60
2014,05,30,17,23,20.60
2014,05,30,17,24,20.70
2014,05,30,17,25,20.80
2014,05,30,17,26,20.80
2014,05,30,17,27,20.80
2014,05,30,17,28,20.80
2014,05,30,17,29,20.80
2014,05,30,17,30,20.80
2014,05,30,17,31,20.80
2014,05,30,17,32,20.80
2014,05,30,17,33,20.90
2014,05,30,17,34,20.90
2014,05,30,17,35,20.90
2014,05,30,17,36,20.80